Theta_e
325 325 325 325 324 323 323 322 321 321 320 319 318 317 317 316 315 314 314 314 314 313 313 312 312 312 311 311 311 311 311 311 311 311 311 312 313 313 312 311 310 309 308 307 306 306 305 304 303 301 299 299
323 323 324 324 324 323 323 322 321 320 320 318 317 317 316 315 315 314 313 313 313 312 312 311 311 310 311 310 310 310 310 310 310 310 311 311 312 311 310 310 309 307 306 306 305 304 303 302 301 300 298 297
320 320 321 322 322 322 322 322 321 319 319 317 317 317 316 315 314 314 314 312 312 312 311 310 309 310 310 310 309 310 309 309 309 310 310 311 310 310 309 308 307 306 305 304 303 302 301 299 298 297 295 296
318 319 319 320 319 320 320 320 319 319 318 317 316 315 314 313 312 313 312 312 310 310 309 309 308 309 309 309 309 309 308 308 309 309 310 310 309 308 307 306 305 303 303 302 301 300 298 296 294 291 293 295
316 317 317 318 318 318 318 318 317 317 316 313 313 311 310 307 305 305 306 306 309 309 307 309 309 308 308 309 309 308 307 307 308 308 307 306 306 304 303 302 301 301 300 300 298 297 294 292 289 290 291 293
315 316 316 316 316 316 316 316 315 312 310 308 309 308 304 303 302 302 303 304 304 306 307 307 307 308 307 308 308 307 306 307 307 306 304 304 303 301 298 295 289 292 297 296 295 293 291 287 288 289 290 292
313 313 313 313 313 313 313 310 308 308 307 306 304 302 301 300 299 300 300 301 302 305 306 306 306 308 307 307 307 306 305 305 305 304 302 301 299 297 293 287 287 286 286 288 290 288 286 287 287 288 289 291
311 311 311 311 311 309 308 307 306 305 303 301 300 300 299 299 299 299 301 303 302 302 303 304 303 302 302 303 303 300 299 302 302 300 298 295 293 289 287 286 286 286 285 285 285 286 285 286 286 287 288 290
310 310 310 309 308 307 306 304 303 302 300 299 298 298 298 298 298 299 299 298 297 296 295 294 293 293 293 293 294 292 289 289 289 287 286 287 286 286 286 286 285 285 285 285 285 285 285 285 286 286 287 288
309 309 308 308 307 305 304 303 301 299 298 297 296 296 296 297 296 296 295 295 294 292 292 292 291 290 289 290 289 289 287 286 286 286 285 286 285 284 285 285 285 286 285 284 284 284 284 285 285 286 287 287
308 308 309 308 306 304 302 302 300 298 296 296 295 295 296 295 295 294 293 292 292 290 290 289 288 287 287 288 287 287 286 285 285 285 285 285 284 284 284 284 284 284 283 284 284 284 284 284 284 285 286 287
307 306 305 304 304 304 302 300 299 297 295 294 293 294 295 295 295 293 292 291 290 288 288 287 286 285 285 285 285 285 286 285 284 284 284 284 284 283 283 283 283 283 283 283 284 284 284 284 284 285 285 286
306 305 304 303 303 301 301 300 298 296 294 293 293 293 294 294 294 293 292 290 289 287 287 285 285 285 285 285 284 285 284 285 284 284 284 284 284 284 284 283 283 283 283 283 283 284 284 284 284 285 285 286
305 304 303 302 302 301 301 299 297 294 292 292 292 292 293 293 294 293 291 290 288 287 286 285 284 285 284 284 284 284 284 284 284 284 283 284 284 283 283 284 284 283 283 283 283 283 283 283 283 284 285 285
304 303 302 302 301 300 300 297 295 293 292 291 292 292 292 292 293 292 291 289 287 287 285 284 284 284 283 283 283 284 284 284 284 284 284 284 284 284 284 284 283 283 282 283 282 283 283 283 283 284 284 285
304 303 303 301 299 298 298 295 294 292 291 291 290 292 291 291 292 292 290 289 287 287 285 284 284 283 283 283 283 283 283 283 283 283 283 283 283 284 284 282 282 283 282 282 282 282 282 283 283 283 284 284
304 303 302 300 299 298 296 295 294 292 290 290 290 291 291 291 291 291 289 288 287 287 285 284 284 283 284 283 283 283 283 284 283 283 283 283 283 283 283 282 282 282 282 282 281 282 282 282 283 283 284 284
303 302 301 300 298 297 295 294 293 292 291 290 290 290 290 290 290 290 289 288 287 287 285 284 284 283 283 283 283 283 283 282 283 283 283 282 282 283 282 282 282 281 281 281 281 282 282 282 283 283 283 283
303 301 300 299 297 296 295 293 293 293 291 290 289 290 290 290 290 290 288 288 287 286 285 284 284 283 283 282 282 282 282 282 282 282 282 282 282 283 282 282 282 282 282 281 280 281 281 281 282 282 282 283
302 302 299 298 298 296 295 293 292 292 291 290 290 290 289 289 289 289 288 287 287 286 285 284 284 283 283 282 282 282 282 282 281 282 282 282 283 281 281 281 281 281 281 281 280 281 281 281 282 282 282 282
301 301 299 297 296 296 295 294 293 292 291 291 289 289 289 289 289 289 288 287 287 286 285 284 284 283 282 282 282 282 281 282 282 281 282 282 282 283 281 281 281 280 281 280 280 280 280 281 281 281 282 281
301 300 299 298 296 296 294 293 293 293 292 290 290 289 289 289 289 289 287 287 286 286 285 285 284 283 282 282 281 281 281 281 281 281 282 281 281 281 281 281 280 280 280 280 279 280 280 280 280 281 281 281
301 299 299 297 295 294 293 293 293 292 291 290 290 289 289 289 289 289 287 287 287 286 285 284 283 282 281 282 281 281 281 281 280 281 281 282 280 281 281 281 281 281 280 279 279 279 279 280 280 281 281 282
299 298 296 294 292 292 292 292 292 291 290 290 289 289 289 288 288 289 287 287 286 286 286 284 283 282 281 281 281 281 280 280 280 280 280 280 281 279 280 280 280 280 280 280 279 280 280 280 280 280 281 280
299 296 295 294 292 292 292 291 291 290 290 290 289 289 289 288 288 289 288 287 286 286 286 284 283 282 281 281 281 281 281 281 281 281 281 280 281 280 279 278 279 280 281 279 278 279 279 279 280 280 281 279
299 298 297 295 293 293 292 291 290 289 289 290 290 289 288 288 287 288 288 287 286 286 286 284 283 282 281 281 281 281 282 281 281 281 280 280 279 280 279 278 279 279 279 277 278 278 278 279 280 280 281 280
301 300 299 299 298 296 295 295 295 294 292 291 290 289 289 288 287 287 287 287 286 286 285 285 283 282 282 281 281 281 280 280 280 280 279 279 279 278 278 278 279 279 280 278 278 279 278 278 278 279 280 281
302 302 301 299 298 297 296 294 294 293 291 290 289 287 287 287 287 287 287 287 286 286 285 285 284 283 282 281 282 281 280 279 279 279 279 279 280 279 277 277 277 279 279 279 278 276 278 278 277 278 280 280
300 299 297 296 292 292 290 288 289 288 287 287 288 287 285 286 287 287 287 287 287 286 286 285 284 283 282 281 281 282 281 280 280 280 280 279 279 279 280 278 277 278 279 279 282 281 277 275 275 277 279 278
299 298 298 294 291 289 289 289 287 287 289 286 286 286 286 286 287 287 286 287 286 286 286 285 284 283 282 282 281 281 281 281 280 279 279 279 279 279 281 280 277 276 278 279 279 280 281 281 280 280 279 279
297 297 297 295 294 294 293 292 292 293 293 291 290 290 287 286 286 287 286 286 286 286 286 285 284 283 283 282 281 282 281 280 280 279 279 279 279 279 280 279 278 277 277 277 277 278 278 277 276 278 279 279
Wind_Speed
16 16 15 14 16 16 14 16 15 15 16 16 15 15 14 13 12 12 11 11 11 11 10 10 10 10 10 10 10 10 10 10 10 11 11 11 12 13 14 15 15 15 15 15 15 15 15 15 14 13 9 5
13 14 14 16 14 14 13 14 16 16 17 16 15 14 13 12 11 12 11 10 10 10 10 10 9 9 10 10 10 10 10 9 9 10 10 11 13 13 14 15 15 15 15 15 15 15 14 14 14 12 10 5
11 14 12 14 12 12 13 13 15 17 16 15 14 13 13 12 11 10 10 11 11 11 10 9 8 9 8 10 10 9 9 9 9 10 10 12 13 14 14 14 15 15 15 14 15 15 14 14 12 12 7 5
9 11 13 13 12 12 13 13 13 15 14 12 12 13 13 11 8 8 10 12 11 12 12 9 4 8 9 9 10 9 9 8 9 10 11 13 13 14 14 14 14 14 14 14 14 14 13 12 11 6 4 5
9 10 13 12 12 12 12 12 12 12 13 14 11 11 11 10 8 7 7 8 7 10 7 7 5 6 8 9 9 9 8 8 9 10 11 11 12 13 14 14 14 15 14 14 14 13 12 11 6 4 4 4
6 7 9 9 9 9 9 10 11 10 9 9 8 11 9 7 6 5 6 7 6 6 7 6 5 5 7 9 9 9 9 9 10 11 12 12 13 13 13 13 6 7 11 14 13 12 11 6 4 4 4 4
6 8 7 7 7 7 7 8 10 8 9 8 8 7 7 6 5 6 6 5 6 6 9 9 8 6 8 9 9 10 9 10 11 12 12 13 13 13 13 7 4 5 4 6 11 9 6 4 4 4 4 4
6 7 7 6 7 7 7 7 7 8 8 7 7 6 5 5 6 6 6 8 10 8 6 7 11 13 13 13 14 13 9 11 12 13 13 13 12 8 4 4 4 4 4 4 3 4 4 4 3 4 3 3
7 7 7 6 6 7 5 6 5 5 6 6 7 6 5 5 6 6 5 5 5 4 5 5 4 4 4 4 6 8 5 4 4 5 4 5 6 4 4 4 4 3 4 4 4 4 3 3 3 3 3 3
9 9 7 7 6 6 5 6 5 5 5 5 6 6 6 6 6 5 5 5 5 4 4 5 4 3 3 4 4 3 4 3 4 4 3 4 4 3 3 4 3 3 3 4 3 4 3 3 3 3 3 3
7 8 7 7 7 8 7 6 6 6 5 5 6 6 6 7 6 5 5 5 5 5 4 4 3 3 3 4 3 2 4 4 3 3 4 3 4 3 4 4 4 4 4 3 4 3 3 3 3 3 3 2
7 7 9 6 6 5 6 8 7 6 5 6 6 6 6 6 6 6 6 5 5 5 4 4 4 3 3 3 3 2 3 4 3 3 3 4 4 4 4 4 4 3 3 3 3 4 3 3 3 3 2 2
7 7 6 7 6 6 7 6 6 7 7 6 6 6 7 7 7 5 5 6 5 4 4 4 4 4 3 3 3 3 3 4 4 4 3 3 4 3 3 3 4 3 3 3 2 3 3 3 3 2 2 2
7 7 8 7 7 6 7 6 5 7 6 6 7 7 7 6 7 7 7 6 5 6 5 4 4 4 4 4 3 4 4 3 4 4 4 3 4 4 3 4 3 3 3 3 3 2 3 3 2 2 2 2
8 7 8 8 7 6 7 7 7 6 6 6 6 7 7 7 6 6 6 6 7 5 5 5 5 4 4 4 4 3 4 3 4 4 4 4 4 4 4 3 2 3 4 3 3 2 3 2 2 2 1 2
11 9 11 9 7 7 6 7 7 6 6 7 6 7 8 7 7 7 6 7 7 6 6 6 5 5 5 5 4 4 4 4 3 4 3 3 3 4 3 3 2 2 3 3 2 2 2 1 2 2 1 2
11 7 7 8 8 7 7 7 6 7 7 7 7 7 8 7 8 7 7 7 8 7 6 6 6 5 5 5 5 4 5 5 4 4 4 4 3 4 3 3 3 2 2 3 2 2 2 2 2 1 1 1
10 7 7 7 5 7 7 6 7 7 7 7 7 7 8 8 8 7 6 7 7 6 6 6 6 6 5 5 5 4 5 5 5 5 5 5 4 4 4 4 3 4 3 2 2 2 1 1 1 1 1 1
13 8 6 7 7 6 8 7 7 7 7 7 8 8 8 8 8 8 8 8 8 7 7 7 6 6 6 5 6 5 5 5 4 4 5 5 6 4 4 3 4 4 3 3 3 2 1 2 1 1 1 1
12 14 8 8 9 6 9 6 7 7 8 8 7 7 7 8 8 8 9 9 8 7 7 7 7 6 5 7 6 5 5 5 5 5 4 4 5 6 5 5 4 3 4 3 3 2 1 1 1 2 1 1
12 12 12 8 9 9 9 8 8 7 7 7 7 7 7 8 8 9 9 9 8 8 8 7 6 6 7 6 6 6 5 5 5 5 5 4 4 4 5 6 5 4 4 4 3 2 2 1 1 2 1 1
14 12 12 10 8 10 8 8 6 6 7 8 7 7 7 9 9 8 9 9 9 7 7 7 6 6 7 7 6 6 6 5 4 4 5 6 4 4 4 5 6 6 4 3 3 3 2 2 1 2 2 1
13 11 11 9 6 6 7 8 6 6 5 5 6 7 9 8 8 8 9 10 9 8 7 7 6 6 8 7 6 6 6 6 6 5 5 6 6 3 2 4 5 4 4 4 3 2 2 2 2 1 1 2
10 9 9 10 7 6 7 6 6 5 6 6 6 9 8 8 9 9 9 9 9 8 8 7 7 7 8 8 7 8 8 7 8 10 9 8 7 6 3 1 3 4 5 3 2 3 2 2 2 3 3 3
11 11 9 8 11 13 11 9 8 7 8 8 9 12 8 8 8 9 9 9 9 9 8 7 6 7 8 8 8 8 10 9 9 7 7 6 5 7 6 4 3 4 4 4 2 2 3 3 3 4 4 5
13 13 13 13 12 11 10 8 8 6 6 9 9 11 11 8 8 9 9 9 10 9 9 8 8 9 9 9 9 8 5 6 7 7 7 7 5 4 7 6 6 6 7 3 5 3 3 3 4 5 5 5
15 14 12 13 14 13 12 13 14 15 14 13 12 8 8 8 8 9 9 10 10 9 9 9 9 9 8 9 8 8 8 8 9 9 10 10 8 7 4 2 4 7 8 4 4 2 1 3 3 4 4 5
15 15 14 11 10 11 9 9 11 9 5 6 5 6 7 7 7 9 9 10 11 9 10 10 10 8 9 10 10 10 9 10 10 9 8 8 8 7 6 6 7 8 7 4 9 3 6 1 0 4 7 7
13 11 9 7 3 3 4 4 4 4 2 5 6 5 7 8 10 11 10 11 12 10 10 10 8 9 10 10 10 9 8 9 11 11 11 11 9 11 9 8 5 6 7 7 6 3 4 1 1 4 2 2
13 14 14 12 10 9 8 9 8 11 15 8 9 11 9 10 11 11 10 10 10 10 9 10 10 10 9 10 9 9 9 8 7 8 10 11 11 12 10 7 7 6 6 7 7 4 2 1 1 2 2 2
12 14 15 17 17 16 16 16 13 12 10 11 10 11 10 10 10 11 11 11 10 10 10 10 9 10 10 10 9 9 8 9 11 11 12 9 10 10 9 7 8 9 8 5 6 6 4 1 1 0 3 4
Wind_Direction
153 148 150 153 155 163 163 160 157 154 145 148 149 147 147 144 143 140 143 146 145 143 132 127 130 125 118 118 116 114 110 106 99 96 95 92 93 91 90 89 88 86 84 82 78 73 68 63 58 52 46 50
150 144 147 149 156 154 157 157 155 148 145 150 151 149 143 135 128 140 147 143 140 133 131 139 137 121 126 123 118 114 112 109 108 106 102 97 91 90 89 89 88 87 85 83 79 73 67 62 57 52 48 49
141 140 135 140 138 141 149 151 150 148 151 152 152 144 129 128 133 145 139 128 127 125 119 113 116 128 126 127 123 116 112 113 110 109 104 95 92 89 87 86 86 85 86 85 80 74 66 59 56 51 44 40
140 138 134 138 140 145 148 150 148 150 149 140 129 120 120 118 119 119 123 127 128 126 122 115 121 142 136 130 129 119 117 116 116 112 101 92 88 87 88 86 84 84 86 84 81 74 66 59 52 46 43 29
137 137 132 134 136 137 139 143 140 121 109 114 108 109 101 94 91 87 77 81 94 107 105 115 123 135 134 136 129 121 118 117 115 108 100 95 90 84 77 72 75 83 83 82 79 74 68 61 52 43 39 32
134 136 131 135 138 137 136 135 119 111 116 115 114 107 98 100 102 102 100 99 95 99 105 110 96 110 142 131 128 127 124 116 106 103 99 96 95 90 82 74 59 56 73 77 77 72 68 62 57 41 39 37
134 133 131 130 130 131 123 116 119 115 116 107 107 107 108 106 105 104 108 108 114 114 113 113 109 110 118 116 128 130 127 113 104 97 92 91 92 88 81 74 70 72 58 66 68 65 58 63 56 52 40 47
137 135 134 129 116 111 116 113 116 113 110 114 115 116 115 116 114 114 120 115 104 100 89 92 77 74 72 74 76 74 68 76 82 83 83 85 84 79 72 80 79 81 76 73 69 67 63 64 58 51 44 40
146 135 126 122 126 124 128 123 122 124 119 123 124 123 125 124 121 119 113 111 106 100 103 94 89 73 76 78 79 82 78 73 71 74 75 74 75 76 85 84 79 84 83 79 75 71 64 67 60 57 47 42
148 147 142 146 144 134 131 134 133 130 133 132 132 131 133 128 122 123 122 121 117 114 114 109 107 96 99 90 93 90 101 92 95 94 94 92 92 88 85 83 83 73 84 90 80 79 67 63 61 57 46 40
144 154 152 151 155 148 152 148 145 148 145 143 140 142 145 140 141 136 133 130 131 126 131 117 121 119 110 111 113 118 115 105 105 110 108 104 97 101 96 91 87 82 76 78 88 82 75 66 66 61 49 44
152 145 145 149 149 158 152 152 155 149 149 138 148 153 153 147 147 147 146 140 140 139 135 128 123 123 117 114 116 125 122 122 119 116 111 112 110 105 96 98 89 90 84 83 82 89 78 76 69 57 55 53
158 149 144 148 159 160 161 165 157 151 146 154 155 158 157 155 149 152 147 150 146 141 137 130 136 138 132 130 135 139 128 134 134 126 130 123 121 110 109 105 99 93 85 83 76 84 86 79 70 67 64 52
156 160 154 164 168 157 162 166 145 145 158 157 159 165 168 165 157 160 159 153 148 152 147 145 138 140 146 146 151 149 144 154 139 138 133 126 123 124 120 111 105 107 97 80 77 77 88 72 69 62 62 53
166 162 166 162 155 159 170 153 146 158 157 163 172 169 164 163 163 156 158 154 156 156 146 153 153 153 148 154 162 157 142 143 143 140 145 148 141 139 133 116 112 116 105 96 82 79 84 77 85 73 58 62
176 175 174 166 154 167 151 152 161 159 164 170 174 169 168 165 164 161 158 158 159 157 159 160 161 157 165 165 160 160 148 146 144 141 129 121 118 120 120 119 114 104 115 102 92 97 88 85 87 77 61 73
182 171 169 165 166 161 155 165 158 167 175 174 172 170 172 169 164 166 163 169 164 163 163 157 159 166 175 164 160 154 149 138 139 134 132 123 126 119 119 121 115 102 103 115 108 101 92 108 92 78 87 82
184 178 175 168 153 161 156 164 169 178 173 170 171 174 174 171 172 165 168 160 165 161 162 163 170 169 171 168 159 149 151 154 157 150 145 145 143 147 147 148 145 142 138 123 118 111 107 114 98 101 108 81
191 178 167 165 166 163 171 167 177 174 168 173 177 173 176 176 174 170 168 171 163 166 166 168 170 179 175 159 159 156 164 154 157 154 157 156 152 150 152 149 157 161 153 152 149 129 134 143 122 122 117 107
190 190 176 178 179 163 176 169 178 174 176 176 169 177 173 173 174 171 172 169 169 162 175 175 176 176 157 164 160 159 156 157 163 163 155 169 159 154 168 162 166 169 160 160 151 137 135 133 153 159 144 150
191 189 191 178 180 180 178 179 180 177 170 167 170 178 178 175 179 174 172 172 172 170 173 179 173 163 162 163 163 161 162 169 164 162 160 168 185 175 162 174 167 169 172 162 158 147 151 149 172 184 177 169
193 193 191 192 187 187 179 185 182 175 169 177 175 171 180 173 181 173 174 174 176 179 175 173 166 155 161 164 163 162 166 171 160 167 170 167 182 183 165 177 175 177 170 165 166 170 168 166 195 192 190 185
193 190 196 193 181 183 186 192 190 176 169 168 174 184 186 172 180 174 176 179 176 174 171 167 165 161 165 165 165 160 166 165 171 173 182 177 170 183 196 178 181 168 161 167 168 184 184 183 199 208 200 204
189 188 188 186 181 195 197 187 186 174 177 174 189 195 186 170 180 176 177 178 176 174 170 170 170 164 164 172 165 166 171 178 182 181 176 187 171 164 159 154 161 154 156 152 175 197 202 209 211 210 208 208
187 190 190 198 198 202 191 185 181 183 186 193 193 195 184 170 181 176 171 175 173 181 172 173 162 161 173 174 176 177 189 184 180 177 174 159 167 164 169 177 166 162 154 163 194 186 230 231 195 214 210 213
194 194 194 191 198 198 195 186 192 187 191 202 201 197 188 181 177 175 174 173 178 180 174 169 173 176 175 177 184 189 172 166 173 169 170 163 167 191 183 185 172 168 153 198 211 189 220 220 200 204 208 215
204 202 204 202 205 200 204 207 208 206 203 199 199 185 180 173 175 175 178 178 181 178 182 181 173 181 174 180 175 172 179 177 178 181 177 177 178 168 196 183 172 184 208 166 142 121 31 247 233 188 214 214
207 207 205 205 203 203 199 204 206 208 172 159 150 171 172 185 175 180 185 181 181 188 190 181 181 173 173 182 185 181 176 179 184 177 181 185 191 165 159 195 196 198 203 178 145 187 210 167 237 277 226 213
200 198 196 185 96 109 135 69 132 133 157 164 173 159 177 189 184 188 188 188 190 188 186 184 178 176 182 180 185 187 184 183 189 184 184 181 178 184 186 185 182 192 200 216 231 144 122 121 228 233 17 107
195 198 198 187 187 188 194 205 188 201 208 180 185 192 185 188 190 189 193 189 188 190 183 184 184 181 176 183 184 190 192 187 175 182 187 191 190 194 206 186 162 181 208 221 226 254 341 327 223 180 172 173
195 201 203 201 201 201 203 209 214 213 210 204 205 204 191 191 188 190 189 191 189 190 190 185 183 183 185 186 185 187 187 186 189 190 192 182 192 199 194 172 181 186 186 185 249 240 217 143 136 317 154 204